Orbital Elements at Epoch 2459000.5 (2020-May-31.0) TDB
Reference: JPL 17 (heliocentric ecliptic J2000)
Element | Value | Uncertainty (1-sigma) | Units |
e | .1046208131838478 | 7.1288e-08 | |
a | 2.992575501732123 | 3.2368e-08 | au |
q | 2.679489819226847 | 2.0511e-07 | au |
i | 10.86778515157219 | 4.1938e-06 | deg |
node | 123.2619566254411 | 3.6799e-05 | deg |
peri | 257.7764525866172 | 4.0959e-05 | deg |
M | 183.5832276575542 | 1.9701e-05 | deg |
tp | 2459927.123846954944 (2022-Dec-13.62384696) | 0.00010737 | TDB |
period | 1890.889287194602 5.18 | 3.0678e-05 8.399e-08 | d yr |
n | .190386609326086 | 3.0888e-09 | deg/d |
Q | 3.305661184237399 | 3.5754e-08 | au |
|
| | Orbit Determination Parameters
Additional Information
|